Location: Melbourne
(37.8170°S, 144.9670°E)
Time: 18:45:26
(UTC+11:00)

ISS - All Passes

Search period start: 24 October 2014 00:00
Search period end: 03 November 2014 00:00
Orbit: 413 x 416 km, 51.6° (Epoch: 24 October)

Date Brightness Start Highest point End Pass type
(mag) Time Alt. Az. Time Alt. Az. Time Alt. Az.
24 Oct - 01:05:08 10° NNW 01:08:02 27° NE 01:10:58 10° ESE night (unlit)
24 Oct - 02:41:38 10° W 02:44:40 30° SSW 02:47:44 10° SSE visible
24 Oct - 07:35:16 10° SSW 07:38:02 23° SSE 07:40:47 10° E daylight
24 Oct - 09:11:37 10° WSW 09:14:51 43° NW 09:18:03 10° NNE daylight
25 Oct - 00:17:04 10° NNE 00:19:04 15° NE 00:21:06 10° E night (unlit)
25 Oct - 01:52:10 10° WNW 01:55:27 51° SW 01:58:47 10° SE visible
25 Oct - 03:31:19 10° SW 03:32:48 12° SSW 03:34:17 10° S visible
25 Oct - 06:46:27 10° SSW 06:48:41 16° SSE 06:50:55 10° ESE daylight
25 Oct - 08:22:23 10° SW 08:25:46 85° NW 08:29:08 10° NE daylight
26 Oct - 01:02:54 10° NW 01:06:16 87° NE 01:09:40 10° SE night (unlit)
26 Oct - 02:41:09 10° WSW 02:43:21 16° SSW 02:45:34 10° SSE visible
26 Oct - 05:57:44 10° S 05:59:15 12° SSE 06:00:45 10° SE daylight
26 Oct - 07:33:15 10° SW 07:36:35 52° SE 07:39:52 10° ENE daylight
26 Oct - 09:10:59 10° W 09:12:57 15° NW 09:14:54 10° NNW daylight
27 Oct - 00:13:53 10° NNW 00:17:06 44° NE 00:20:21 10° ESE night (unlit)
27 Oct - 01:51:12 10° W 01:53:56 22° SSW 01:56:42 10° SSE visible
27 Oct - 06:44:12 10° SSW 06:47:16 31° SSE 06:50:19 10° E daylight
27 Oct - 08:20:59 10° WSW 08:23:53 27° NW 08:26:46 10° NNE daylight
27 Oct - 23:25:14 10° N 23:27:59 24° NE 23:30:45 10° ESE night (unlit)
28 Oct - 01:01:25 10° W 01:04:32 34° SSW 01:07:41 10° SE night (unlit)
28 Oct - 02:41:26 10° SSW 02:42:03 10° SSW 02:42:40 10° S visible
28 Oct - 05:55:12 10° SSW 05:57:51 21° SSE 06:00:29 10° ESE daylight
28 Oct - 07:31:26 10° WSW 07:34:44 51° NW 07:38:00 10° NNE daylight
28 Oct - 22:37:17 10° NNE 22:38:52 13° NE 22:40:28 10° E night (unlit)
29 Oct - 00:11:51 10° WNW 00:15:11 59° SW 00:18:32 10° SE night (unlit)
29 Oct - 01:50:45 10° SW 01:52:27 13° SSW 01:54:09 10° S visible
29 Oct - 05:06:16 10° SSW 05:08:20 15° SSE 05:10:23 10° ESE visible
29 Oct - 06:42:04 10° SW 06:45:28 82° SE 06:48:50 10° NE daylight
29 Oct - 23:22:30 10° NW 23:25:51 73° NE 23:29:14 10° SE night (unlit)
30 Oct - 01:00:30 10° WSW 01:02:52 18° SSW 01:05:14 10° SSE night (unlit)
30 Oct - 04:17:27 10° S 04:18:42 12° SSE 04:19:58 10° SE visible
30 Oct - 05:52:49 10° SW 05:56:05 44° SE 05:59:20 10° ENE daylight
30 Oct - 07:30:13 10° W 07:32:31 17° NW 07:34:48 10° N daylight
30 Oct - 22:33:25 10° NNW 22:36:33 37° NE 22:39:42 10° ESE night (unlit)
31 Oct - 00:10:26 10° W 00:13:18 25° SSW 00:16:10 10° SSE night (unlit)
31 Oct - 05:03:38 10° SSW 05:06:36 27° SSE 05:09:33 10° E visible
31 Oct - 06:40:14 10° WSW 06:43:17 32° NW 06:46:18 10° NNE daylight
31 Oct - 21:44:45 10° N 21:47:16 20° NE 21:49:49 10° E night (unlit)
31 Oct - 23:20:34 10° WNW 23:23:45 39° SW 23:26:58 10° SE night (unlit)
01 Nov - 01:00:11 10° SSW 01:01:11 11° SSW 01:02:12 10° S night (unlit)
01 Nov - 04:14:30 10° SSW 04:17:00 19° SSE 04:19:30 10° ESE visible
01 Nov - 05:50:36 10° SW 05:53:57 62° NW 05:57:16 10° NE daylight
01 Nov - 20:57:13 10° NE 20:58:01 11° NE 20:58:50 10° ENE visible
01 Nov - 22:30:54 10° WNW 22:34:15 71° SW 22:37:38 10° SE night (unlit)
02 Nov - 00:09:32 10° SW 00:11:26 14° SSW 00:13:21 10° SSE night (unlit)
02 Nov - 03:25:26 10° SSW 03:27:18 14° SSE 03:29:10 10° SE visible
02 Nov - 05:01:07 10° SW 05:04:30 68° SE 05:07:51 10° ENE visible
02 Nov - 06:39:44 10° WNW 06:40:44 11° NW 06:41:43 10° NW daylight
02 Nov - 21:41:28 10° NW 21:44:46 60° NE 21:48:07 10° ESE visible
02 Nov - 23:19:11 10° WSW 23:21:42 19° SSW 23:24:14 10° SSE night (unlit)
